SCP
0 0 0 0 0 0 0 0 0 0 0 0 0 0 0 0 0 0 0 0 0 0
0 0 0 0 0 0 0 0 0 0 0 0 0 0 0 0 0 0 0 0 0 0
0 0 0 0 0 0 0 0 0 0 0 0 0 0 0 0 0 0 0 0 0 0
0 0 0 0 0 0 0 0 0 0 0 0 0 0 0 0 0 0 0 0 0 0
0 0 0 0 0 0 0 0 0 0 0 0 0 0 0 0 0 0 0 0 0 0
0 0 0 0 0 0 0 0 0 0 0 0 0 0 0 0 0 0 0 0 0 0
0 0 0 0 0 0 0 0 0 0 0 0 0 0 0 0 0 0 0 0 0 0
0 0 0 0 0 0 0 0 0 0 0 0 0 0 0 0 0 0 0 0 0 0
0 0 0 0 0 0 0 0 0 0 0 0 0 0 0 0 0 0 0 0 0 0
0 0 0 0 0 0 0 0 0 0 0 0 0 0 0 0 0 0 0 0 0 0
0 0 0 0 0 0 0 0 0 0 0 0 0 0 0 0 0 0 0 0 0 0
0 0 0 0 0 0 0 0 0 0 0 0 0 0 0 0 0 0 0 0 0 0
0 0 0 0 0 0 0 0 0 0 0 0 0 0 0 0 0 0 0 0 0 0
0 0 0 0 0 0 0 0 0 0 0 0 0 0 0 0 0 0 0 0 0 0
Wind_Speed_500mb
61 59 52 46 40 34 27 25 23 18 16 12 13 11 12 13 13 14 15 15 16 16
68 67 62 54 47 42 37 35 31 27 23 18 15 14 15 15 16 17 19 19 19 18
73 70 65 59 57 51 45 44 41 36 31 26 22 20 18 19 19 21 24 24 24 21
76 73 69 66 62 60 53 50 47 41 38 36 28 26 22 25 27 25 28 28 28 25
78 75 74 73 71 66 57 55 53 50 52 45 34 31 27 32 35 31 30 30 31 30
82 81 80 79 77 69 61 59 64 61 59 57 44 35 36 46 41 35 34 33 33 33
82 86 85 84 74 70 70 63 71 67 64 61 52 46 45 48 45 38 38 38 35 38
79 82 87 84 70 78 72 70 72 75 70 69 64 55 48 51 48 42 43 43 39 41
85 89 89 84 86 83 70 73 81 79 75 75 69 67 58 54 50 49 49 48 43 43
81 86 86 89 84 78 77 74 78 81 78 77 77 69 65 50 50 57 56 50 48 47
64 71 75 79 81 83 88 71 72 81 81 80 76 70 65 58 55 60 59 52 49 45
48 52 58 61 67 75 83 81 77 80 83 81 76 69 66 62 64 67 63 53 46 47
24 29 33 38 49 54 61 66 71 76 79 75 76 69 65 62 66 66 60 56 63 55
14 17 21 26 31 39 47 57 64 71 73 75 74 71 72 75 79 81 83 79 75 61
Wind_Direction_500mb
211 214 216 218 219 221 222 228 229 234 242 244 241 236 243 251 258 261 260 260 258 258
215 217 220 223 224 227 230 234 238 240 245 248 243 246 248 258 255 258 259 258 256 257
220 221 225 228 231 232 235 239 241 244 246 250 250 245 254 259 260 256 259 255 251 250
225 227 230 234 235 235 236 241 247 251 257 252 255 260 255 260 257 253 256 256 255 253
231 233 235 239 239 238 239 242 245 248 251 249 253 261 266 267 258 252 250 253 255 254
234 237 240 242 242 242 244 245 244 248 246 243 253 249 255 256 252 250 251 251 251 252
236 239 241 243 245 247 245 249 246 248 248 242 243 245 247 251 250 249 250 250 248 250
242 244 245 246 247 250 247 250 250 246 246 242 239 245 248 247 246 249 249 250 245 250
241 245 248 248 244 248 251 257 247 246 249 245 243 245 242 245 242 248 247 247 246 249
251 251 251 251 249 244 246 254 247 247 251 247 248 249 249 246 243 244 246 243 243 245
258 258 255 253 249 245 245 257 253 249 252 252 249 249 252 252 239 244 245 242 243 245
257 259 258 257 252 249 248 253 253 248 249 250 253 253 252 245 237 242 244 242 244 247
252 250 252 253 251 253 255 255 253 252 253 254 255 253 252 246 236 239 242 242 241 236
232 243 253 256 255 255 258 257 256 255 255 255 254 254 249 240 240 237 237 237 241 235
Wind_Speed_850mb
61 59 52 46 40 34 27 25 23 18 16 12 13 11 12 13 13 14 15 15 16 16
68 67 62 54 47 42 37 35 31 27 23 18 15 14 15 15 16 17 19 19 19 18
73 70 65 59 57 51 45 44 41 36 31 26 22 20 18 19 19 21 24 24 24 21
76 73 69 66 62 60 53 50 47 41 38 36 28 26 22 25 27 25 28 28 28 25
78 75 74 73 71 66 57 55 53 50 52 45 34 31 27 32 35 31 30 30 31 30
82 81 80 79 77 69 61 59 64 61 59 57 44 35 36 46 41 35 34 33 33 33
82 86 85 84 74 70 70 63 71 67 64 61 52 46 45 48 45 38 38 38 35 38
79 82 87 84 70 78 72 70 72 75 70 69 64 55 48 51 48 42 43 43 39 41
85 89 89 84 86 83 70 73 81 79 75 75 69 67 58 54 50 49 49 48 43 43
81 86 86 89 84 78 77 74 78 81 78 77 77 69 65 50 50 57 56 50 48 47
64 71 75 79 81 83 88 71 72 81 81 80 76 70 65 58 55 60 59 52 49 45
48 52 58 61 67 75 83 81 77 80 83 81 76 69 66 62 64 67 63 53 46 47
24 29 33 38 49 54 61 66 71 76 79 75 76 69 65 62 66 66 60 56 63 55
14 17 21 26 31 39 47 57 64 71 73 75 74 71 72 75 79 81 83 79 75 61
Wind_Direction_850mb
211 214 216 218 219 221 222 228 229 234 242 244 241 236 243 251 258 261 260 260 258 258
215 217 220 223 224 227 230 234 238 240 245 248 243 246 248 258 255 258 259 258 256 257
220 221 225 228 231 232 235 239 241 244 246 250 250 245 254 259 260 256 259 255 251 250
225 227 230 234 235 235 236 241 247 251 257 252 255 260 255 260 257 253 256 256 255 253
231 233 235 239 239 238 239 242 245 248 251 249 253 261 266 267 258 252 250 253 255 254
234 237 240 242 242 242 244 245 244 248 246 243 253 249 255 256 252 250 251 251 251 252
236 239 241 243 245 247 245 249 246 248 248 242 243 245 247 251 250 249 250 250 248 250
242 244 245 246 247 250 247 250 250 246 246 242 239 245 248 247 246 249 249 250 245 250
241 245 248 248 244 248 251 257 247 246 249 245 243 245 242 245 242 248 247 247 246 249
251 251 251 251 249 244 246 254 247 247 251 247 248 249 249 246 243 244 246 243 243 245
258 258 255 253 249 245 245 257 253 249 252 252 249 249 252 252 239 244 245 242 243 245
257 259 258 257 252 249 248 253 253 248 249 250 253 253 252 245 237 242 244 242 244 247
252 250 252 253 251 253 255 255 253 252 253 254 255 253 252 246 236 239 242 242 241 236
232 243 253 256 255 255 258 257 256 255 255 255 254 254 249 240 240 237 237 237 241 235